Regional Weather Roundup
Issued by NWS

Home | Current Version | Previous Version | Graphics & Text | Print | Product List | Glossary On
Versions: 1 2 3 4 5 6 7 8 9 10 11 12 13 14 15 16 17 18 19 20 21 22 23 24 25 26 27 28 29 30 31 32 33 34 35 36 37 38 39 40 41 42 43 44 45 46 47 48 49 50
000
ASUS43 KMKX 232200
RWRWI

WISCONSIN REGIONAL WEATHER ROUNDUP
NATIONAL WEATHER SERVICE MILWAUKEE/SULLIVAN WI
500 PM CDT SUN APR 23 2017

NOTE: "FAIR" INDICATES FEW OR NO CLOUDS BELOW 12,000 FEET WITH NO
SIGNIFICANT WEATHER AND/OR OBSTRUCTIONS TO VISIBILITY.

WIZ001-002-006>008-014>016-023>028-232300-
NORTHWEST WISCONSIN

CITY           SKY/WX    TMP DP  RH WIND       PRES   REMARKS
SUPERIOR ARPT  CLOUDY    37  31  79 NE15      30.13F WCI  27
ASHLAND        CLOUDY    36  28  73 NE13      30.15S WCI  27
HAYWARD        CLOUDY    43  34  70 NE16      30.06F
SIREN          CLOUDY    51  35  53 NE10      30.03F
CUMBERLAND     CLOUDY    55  37  50 NE6       29.99F
RICE LAKE      CLOUDY    62  40  44 NE3       30.00F
CHETEK         CLOUDY    61  42  49 NE5       29.99F
LADYSMITH      CLOUDY    59  40  49 CALM      30.03F
EAU CLAIRE     NOT AVBL
MENOMONIE      MOSUNNY   69  35  29 S3        29.96F
NEW RICHMOND   CLOUDY    67  37  33 CALM      29.96F
OSCEOLA        MOSUNNY   64  42  45 CALM      29.99F
$$

WIZ003>005-009-010-017-018-232300-
NORTH CENTRAL WISCONSIN

CITY           SKY/WX    TMP DP  RH WIND       PRES   REMARKS
MANITOWISH WTR CLOUDY    39  35  86 NE7       30.09S WCI  34
ARBOR VITAE    MOSUNNY   44  35  71 NE8       30.07S
WOODRUFF       MOSUNNY   44  35  71 NE8       30.07S
RHINELANDER    CLOUDY    50  36  58 NE7       30.06S
EAGLE RIVER    CLOUDY    43  33  67 NE8       30.08F
LAND O LAKES   CLOUDY    40  32  71 CALM      30.12R
PHILLIPS       PTSUNNY   50  38  62 N12       30.03F
TOMAHAWK       SUNNY     55  38  51 N7        30.04S
MEDFORD        MOSUNNY   61  41  47 W3        29.99F
MERRILL        SUNNY     60  42  51 CALM      30.02S
$$

WIZ029-030-035-036-043>047-232300-
CENTRAL WISCONSIN

CITY           SKY/WX    TMP DP  RH WIND       PRES   REMARKS
WAUSAU         MOSUNNY   63  40  42 CALM      29.99F
MOSINEE        MOSUNNY   66  37  34 NW3       30.01S
MARSHFIELD     MOSUNNY   68  36  30 W7        29.98S
STEVENS POINT  MOSUNNY   60  42  52 E18       30.01S
WAUPACA        SUNNY     60  42  52 NE14      30.04S
WAUTOMA          N/A     61  44  53 E13G18    30.02
WISC RAPIDS    PTSUNNY   66  43  43 SE12      30.00R
CAMP DOUGLAS   NOT AVBL
$$

WIZ011>013-019>022-031-037>040-048>050-232300-
NORTHEAST WISCONSIN

CITY           SKY/WX    TMP DP  RH WIND       PRES   REMARKS
ANTIGO         MOSUNNY   55  38  52 E10       30.04F
SHAWANO        SUNNY     55  39  54 E12       30.07F
OCONTO         SUNNY     42  32  67 E14G21    30.11F
STURGEON BAY   SUNNY     42  32  67 E10       30.12F
GREEN BAY      SUNNY     49  39  68 NE18      30.09F
MANITOWOC      NOT AVBL
APPLETON       MOSUNNY   54  37  54 NE15G21   30.04F
CLINTONVILLE   SUNNY     52  36  54 SE12      30.06S
OSHKOSH        SUNNY     55  43  63 E13       30.04F
$$

WIZ032>034-041-042-053>061-232300-
SOUTHWEST WISCONSIN

CITY           SKY/WX    TMP DP  RH WIND       PRES   REMARKS
LA CROSSE      SUNNY     74  30  19 SW8       29.96F
SPARTA         MOSUNNY   71  33  24 W10G16    29.98S
VIROQUA        SUNNY     70  32  24 W7        30.00S
BOSCOBEL       SUNNY     73  30  20 SW9       29.99F
PRAIRIE DU CHI SUNNY     72  28  19 SW8       29.98F
PLATTEVILLE    SUNNY     71  31  23 SW5       30.01F
$$

WIZ056-057-062-063-064-067-068-232300-
SOUTH CENTRAL WISCONSIN

CITY           SKY/WX    TMP DP  RH WIND       PRES   REMARKS
REEDSBURG      SUNNY     70  33  25 SW7       29.98F
BARABOO/DELLS  SUNNY     71  32  23 W9        29.98F
LONE ROCK      NOT AVBL
MINERAL POINT  SUNNY     72  30  21 W3        30.01F
MADISON        MOSUNNY   71  33  24 CALM      29.99F
MIDDLETON      SUNNY     73  33  23 S9        29.99F
WATERTOWN      SUNNY     69  40  35 E15G22    30.00F
MONROE         SUNNY     70  30  23 SW6       30.01F
JANESVILLE     MOSUNNY   72  30  21 NW7       30.01
$$

WIZ051-052-058>065-066-070>072-232300-
SOUTHEAST WISCONSIN

CITY           SKY/WX    TMP DP  RH WIND       PRES   REMARKS
MILWAUKEE      MOSUNNY   45  37  73 NE15G23   30.09S
WAUKESHA       NOT AVBL
MILWAUKEE/TIMM SUNNY     46  34  61 NE10G16   30.09S
RACINE         SUNNY     45  37  73 N13       30.09S
KENOSHA        SUNNY     54  41  61 NE12      30.06R
FOND DU LAC    SUNNY     54  39  57 E17       30.05S
SHEBOYGAN      SUNNY     43  36  76 NE22      30.10S
WEST BEND      SUNNY     50  37  62 E10       30.07S
JUNEAU         SUNNY     61  46  57 E12G20    30.02S
$$

LSZ147-162-232300-
LAKE SUPERIOR

STATION/POSITION TIME  TEMP    WIND        PRES    WAVE
                       AIR SEA DIR/SP/G            HT/PER
                 (UTC) (F)     (DEG/KT/KT) (MB)    (FT/S)
DEVILS ISLAND    2100   33     100/ 14/ 16 1022.7F
PORT WING        2030   37      40/ 12/ 15 1021.7F
SAXON HARBOR     2140   36      50/ 17/ 20 1020.7F
$$

LMZ867-665-643>646-232300-
LAKE MICHIGAN

STATION/POSITION TIME  TEMP    WIND        PRES    WAVE
                       AIR SEA DIR/SP/G            HT/PER
                 (UTC) (F)     (DEG/KT/KT) (MB)    (FT/S)
CHAMBERS ISLAND  2140   38      40/ 11/ 18 1020.3S
N MID LAKE BUOY  2050   37 37   30/ 12/ 14 1022.5F   2/ 4
NORTHPORT PIER   2140   40      20/  8/ 12 1020.7F
KEWAUNEE LAKESHO 2130   39      50/ 16/ 21 1019.6F
SHEBOYGAN LAKESH 2100   38      30/ 20/ 22 1019.7F
PORT WASHINGTON  2140   42      40/ 19/ 22 1020.0S
MILWAUKEE LAKESH 2130   40      20/ 16/ 18   N/A
KENOSHA   LAKESH 2100   43      20/ 22/ 25 1017.6
$$

TC  - TEMPERATURE IN CELSIUS
VSB - VISIBILITY IN STATUTE MILES
WCI - WIND CHILL INDEX
HX  - HEAT INDEX





USA.gov is the U.S. government's official web portal to all federal, state and local government web resources and services.